FW7008 Weather Reports


time (UTC)temp
C
wind
direction
speed
KPH
gust
KPH
rain 1hr
cm
rain 24hr
cm
rain mn
cm
humidity
%
barometer
mb
20260503013244 17 165 4.8 9.7 0.00 0.00 0.00 86 1011.5
20260503012741 17 168 3.2 8.0 0.00 0.00 0.00 86 1011.5
20260503012238 17 247 16.1 22.5 0.00 0.00 0.00 86 1011.5
20260503011735 17 265 12.9 16.1 0.00 0.00 0.00 85 1011.5
20260503011232 17 255 4.8 8.0 0.00 0.00 0.00 84 1011.5
20260503010728 17 157 9.7 16.1 0.00 0.00 0.00 85 1011.2
20260503010225 17 259 0.0 0.0 0.00 0.00 0.00 84 1011.5
20260503005723 17 236 12.9 14.5 0.00 0.00 0.00 83 1011.5
20260503005220 17 201 3.2 8.0 0.00 0.00 0.00 84 1011.2
20260503004716 17 264 12.9 20.9 0.00 0.00 0.00 83 1011.5
20260503004215 17 277 16.1 24.1 0.00 0.00 0.00 83 1011.2
20260503003711 17 258 9.7 11.3 0.00 0.00 0.00 84 1011.5
20260503003208 17 269 12.9 17.7 0.00 0.00 0.00 83 1011.5
20260503002705 17 221 17.7 17.7 0.00 0.00 0.00 82 1011.5
20260503002202 17 245 9.7 11.3 0.00 0.00 0.00 82 1011.5
20260503001657 17 250 16.1 22.5 0.00 0.00 0.00 82 1011.8
20260503001154 17 238 12.9 14.5 0.00 0.00 0.00 82 1011.8
20260503000652 17 222 9.7 14.5 0.00 0.00 0.00 82 1011.5
20260503000149 18 241 11.3 16.1 0.00 0.00 0.00 80 1011.8
20260502235645 18 205 9.7 12.9 0.00 0.00 0.00 82 1011.8
20260502235138 17 240 8.0 11.3 0.00 0.00 0.00 82 1011.5
20260502234634 17 241 12.9 16.1 0.00 0.00 0.00 81 1011.8
20260502234131 18 244 19.3 24.1 0.00 0.00 0.00 79 1011.8
20260502233627 18 201 11.3 14.5 0.00 0.00 0.00 79 1011.8
20260502233124 17 224 8.0 11.3 0.00 0.00 0.00 81 1011.8
20260502232620 17 250 9.7 14.5 0.00 0.00 0.00 81 1011.8
20260502232118 18 246 4.8 12.9 0.00 0.00 0.00 80 1012.2
20260502231614 17 213 3.2 4.8 0.00 0.00 0.00 82 1012.2
20260502231112 17 232 14.5 16.1 0.00 0.00 0.00 81 1012.2
20260502230610 18 182 11.3 14.5 0.00 0.00 0.00 80 1012.2
20260502230109 18 248 11.3 12.9 0.00 0.00 0.00 79 1012.2
20260502225603 18 265 14.5 16.1 0.00 0.00 0.00 80 1012.2
20260502225101 18 203 1.6 8.0 0.00 0.00 0.00 80 1012.5
20260502224557 17 242 20.9 25.7 0.00 0.00 0.00 82 1012.2
20260502224054 18 275 16.1 22.5 0.00 0.00 0.00 80 1012.2
20260502223552 18 243 12.9 14.5 0.00 0.00 0.00 80 1012.5
20260502223050 18 242 19.3 22.5 0.00 0.00 0.00 80 1013.2
20260502222546 18 286 12.9 17.7 0.00 0.00 0.00 79 1012.9
20260502222043 18 250 12.9 17.7 0.00 0.00 0.00 79 1013.2
20260502221539 18 256 3.2 11.3 0.00 0.00 0.00 82 1013.2
20260502221037 18 137 11.3 16.1 0.00 0.00 0.00 81 1013.2
20260502220532 18 195 12.9 16.1 0.00 0.00 0.00 80 1013.2
20260502220029 18 245 11.3 22.5 0.00 0.00 0.00 80 1013.5
20260502215526 18 270 4.8 11.3 0.00 0.00 0.00 80 1013.5
20260502215023 18 226 12.9 17.7 0.00 0.00 0.00 81 1013.5
20260502214520 18 176 11.3 14.5 0.00 0.00 0.00 78 1013.9
20260502214017 19 234 8.0 11.3 0.00 0.00 0.00 78 1013.9
20260502213514 19 258 16.1 20.9 0.00 0.00 0.00 79 1013.9
20260502213012 19 232 11.3 14.5 0.00 0.00 0.00 78 1013.9
20260502212510 18 238 12.9 17.7 0.00 0.00 0.00 79 1013.9
20260502212007 18 239 9.7 12.9 0.00 0.00 0.00 80 1013.9
20260502211503 19 170 9.7 12.9 0.00 0.00 0.00 80 1013.9
20260502211001 19 195 9.7 12.9 0.00 0.00 0.00 81 1013.9
20260502210457 19 217 8.0 14.5 0.00 0.00 0.00 79 1013.9
20260502205955 19 219 11.3 12.9 0.00 0.00 0.00 79 1014.2
20260502205451 19 245 14.5 22.5 0.00 0.00 0.00 78 1013.9
20260502204948 19 183 9.7 12.9 0.00 0.00 0.00 81 1014.2
20260502204445 19 243 0.0 0.0 0.00 0.00 0.00 80 1014.2
20260502203943 18 267 14.5 17.7 0.00 0.00 0.00 82 1014.2
20260502203440 19 256 0.0 3.2 0.00 0.00 0.00 80 1013.9
20260502202936 19 244 12.9 16.1 0.00 0.00 0.00 81 1014.2
20260502202433 19 221 11.3 14.5 0.00 0.00 0.00 81 1014.2
20260502201931 18 208 9.7 11.3 0.00 0.00 0.00 81 1014.2
20260502201426 19 267 0.0 3.2 0.00 0.00 0.00 81 1014.2
20260502200924 19 198 0.0 1.6 0.00 0.00 0.00 81 1014.2
20260502200419 18 230 9.7 12.9 0.00 0.00 0.00 83 1014.6
20260502195917 18 255 11.3 12.9 0.00 0.00 0.00 83 1014.2
20260502195414 19 296 0.0 0.0 0.00 0.00 0.00 82 1014.6
20260502194910 19 243 4.8 8.0 0.00 0.00 0.00 82 1014.6
20260502194408 18 183 11.3 14.5 0.00 0.00 0.00 81 1014.6
20260502193903 18 233 8.0 14.5 0.00 0.00 0.00 82 1014.9
20260502193401 19 262 8.0 11.3 0.00 0.00 0.00 82 1014.6
20260502192855 19 233 11.3 14.5 0.00 0.00 0.00 82 1014.6
20260502192353 19 164 12.9 16.1 0.00 0.00 0.00 81 1014.9
20260502191850 18 211 11.3 14.5 0.00 0.00 0.00 82 1014.9
20260502191348 18 230 0.0 0.0 0.00 0.00 0.00 82 1014.6
20260502190845 18 263 0.0 0.0 0.00 0.00 0.00 83 1014.9
20260502190342 18 163 0.0 0.0 0.00 0.00 0.00 83 1015.2
20260502185838 18 171 1.6 3.2 0.00 0.00 0.00 85 1015.2
20260502185334 18 254 11.3 12.9 0.00 0.00 0.00 86 1015.2
20260502184831 18 191 11.3 14.5 0.00 0.00 0.00 85 1015.6
20260502184326 18 230 9.7 11.3 0.00 0.00 0.00 85 1015.2
20260502183823 18 264 0.0 0.0 0.00 0.00 0.00 86 1015.2
20260502183319 17 160 0.0 0.0 0.00 0.00 0.00 86 1015.6
20260502182815 17 222 0.0 0.0 0.00 0.00 0.00 86 1015.2
20260502182310 18 248 0.0 0.0 0.00 0.00 0.00 86 1015.2
20260502181807 18 231 0.0 0.0 0.00 0.00 0.00 86 1015.6
20260502181306 17 255 0.0 0.0 0.00 0.00 0.00 87 1015.6
20260502180803 17 184 0.0 0.0 0.00 0.00 0.00 87 1015.6
20260502180300 17 281 0.0 0.0 0.00 0.00 0.00 87 1015.6
20260502170220 16 44 0.0 0.0 0.00 0.00 0.00 91 1015.6
20260502164206 16 56 0.0 0.0 0.00 0.00 0.00 92 1015.9
20260502163701 16 67 0.0 0.0 0.00 0.00 0.00 92 1015.9
20260502163154 16 55 0.0 0.0 0.00 0.00 0.00 92 1015.6
20260502162650 16 68 0.0 0.0 0.00 0.00 0.00 93 1015.9
20260502162147 16 68 0.0 0.0 0.00 0.00 0.00 93 1015.9
20260502161644 16 70 0.0 0.0 0.00 0.00 0.00 93 1015.9
20260502161140 16 76 0.0 0.0 0.00 0.00 0.00 93 1015.9
20260502160639 16 79 0.0 0.0 0.00 0.00 0.00 94 1015.9
20260502160138 16 90 0.0 0.0 0.00 0.00 0.00 94 1016.2
20260502152057 15 66 0.0 0.0 0.00 0.00 0.00 95 1015.6
20260502151554 15 72 0.0 0.0 0.00 0.00 0.00 96 1015.6
20260502151052 15 78 0.0 0.0 0.00 0.00 0.00 96 1015.9
20260502150549 15 64 0.0 0.0 0.00 0.00 0.00 96 1015.6
20260502130428 15 175 0.0 0.0 0.00 0.00 0.00 97 1014.9
20260502123410 15 183 0.0 0.0 0.00 0.00 0.00 97 1014.6
20260502122908 15 223 0.0 0.0 0.00 0.00 0.00 97 1014.9
20260502122404 15 190 0.0 0.0 0.00 0.00 0.00 97 1014.9
20260502121902 15 217 0.0 0.0 0.00 0.00 0.00 97 1014.6
20260502121359 15 173 0.0 0.0 0.00 0.00 0.00 97 1014.9
20260502120857 15 232 0.0 0.0 0.00 0.00 0.00 97 1014.6
20260502120352 15 230 0.0 0.0 0.00 0.00 0.00 97 1014.9
20260502115850 15 231 0.0 0.0 0.00 0.00 0.00 97 1014.9
20260502115347 15 238 0.0 0.0 0.00 0.00 0.00 97 1014.6
20260502114838 15 205 0.0 0.0 0.00 0.00 0.00 97 1014.6
20260502114335 15 238 0.0 0.0 0.00 0.00 0.00 97 1014.6
20260502113831 15 173 0.0 0.0 0.00 0.00 0.00 97 1014.6
20260502113329 15 114 0.0 0.0 0.00 0.00 0.00 97 1014.2
20260502112827 15 125 0.0 0.0 0.00 0.00 0.00 97 1014.2
20260502112324 15 121 0.0 0.0 0.00 0.00 0.00 97 1014.6
20260502111822 15 107 0.0 0.0 0.00 0.00 0.00 97 1014.2
20260502111319 15 133 0.0 0.0 0.00 0.00 0.00 97 1014.2
20260502110817 15 230 0.0 0.0 0.00 0.00 0.00 97 1014.6
20260502110314 15 148 0.0 0.0 0.00 0.00 0.00 97 1013.9
20260502105812 15 160 0.0 0.0 0.00 0.00 0.00 97 1014.2
20260502105308 15 76 0.0 0.0 0.00 0.00 0.00 97 1014.2
20260502104806 15 83 0.0 0.0 0.00 0.00 0.00 97 1014.2
20260502104303 15 88 0.0 0.0 0.00 0.00 0.00 98 1014.2
20260502103800 15 130 0.0 0.0 0.00 0.00 0.00 98 1014.2
20260502103257 15 145 0.0 0.0 0.00 0.00 0.00 98 1013.9
20260502102755 15 236 0.0 0.0 0.00 0.00 0.00 98 1014.2
20260502102251 15 293 0.0 0.0 0.00 0.00 0.00 98 1014.2
20260502101749 15 288 0.0 0.0 0.00 0.00 0.00 98 1014.2
20260502101247 15 283 0.0 0.0 0.00 0.00 0.00 98 1014.2
20260502100745 15 274 0.0 0.0 0.00 0.00 0.00 98 1014.2
20260502100244 15 290 0.0 0.0 0.00 0.00 0.00 98 1014.2
20260502091217 15 229 0.0 0.0 0.00 0.00 0.00 98 1014.6
20260502090715 15 197 0.0 0.0 0.00 0.00 0.00 98 1014.6
20260502090211 15 231 0.0 0.0 0.00 0.00 0.00 98 1014.6
20260502071107 15 261 0.0 0.0 0.00 0.00 0.00 97 1014.9
20260502070605 15 281 0.0 0.0 0.00 0.00 0.00 97 1015.2
20260502065601 15 254 0.0 0.0 0.00 0.00 0.00 97 1014.9
20260502065058 15 254 0.0 0.0 0.00 0.00 0.00 97 1014.9
20260502064557 15 243 0.0 0.0 0.00 0.00 0.00 97 1014.9
20260502064054 15 232 0.0 0.0 0.00 0.00 0.00 96 1014.9
20260502063551 15 236 0.0 0.0 0.00 0.00 0.00 96 1015.2
20260502063049 15 239 0.0 0.0 0.00 0.00 0.00 96 1015.2
20260502062546 15 246 0.0 0.0 0.00 0.00 0.00 96 1014.9
20260502062044 15 298 0.0 0.0 0.00 0.00 0.00 96 1014.9
20260502061542 15 242 0.0 0.0 0.00 0.00 0.00 96 1014.9
20260502061039 15 244 0.0 0.0 0.00 0.00 0.00 96 1014.9
20260502060533 15 204 0.0 0.0 0.00 0.00 0.00 96 1014.9
20260502060031 15 220 0.0 0.0 0.00 0.00 0.00 96 1014.9
20260502055528 15 225 0.0 0.0 0.00 0.00 0.00 96 1014.9
20260502055027 15 272 0.0 0.0 0.00 0.00 0.00 95 1014.9
20260502054525 15 195 0.0 0.0 0.00 0.00 0.00 95 1014.9
20260502054021 15 273 0.0 0.0 0.00 0.00 0.00 95 1014.9
20260502053518 15 289 0.0 0.0 0.00 0.00 0.00 95 1014.9
20260502053017 15 224 0.0 0.0 0.00 0.00 0.00 95 1014.9
20260502052515 15 244 0.0 0.0 0.00 0.00 0.00 95 1014.9
20260502052013 15 256 0.0 0.0 0.00 0.00 0.00 95 1014.9
20260502051510 15 230 4.8 8.0 0.00 0.00 0.00 95 1014.9
20260502051008 15 248 4.8 4.8 0.00 0.00 0.00 95 1014.9
20260502050503 15 252 0.0 0.0 0.00 0.00 0.00 94 1015.2
20260502050001 15 248 0.0 0.0 0.00 0.00 0.00 94 1014.9
20260502045457 15 170 0.0 0.0 0.00 0.00 0.00 94 1014.9
20260502044955 15 231 0.0 0.0 0.00 0.00 0.00 94 1014.9
20260502044450 15 185 0.0 0.0 0.00 0.00 0.00 94 1014.6
20260502043948 15 241 0.0 0.0 0.00 0.00 0.00 93 1014.6
20260502043445 15 231 0.0 0.0 0.00 0.00 0.00 93 1014.6
20260502042944 16 233 0.0 0.0 0.00 0.00 0.00 93 1014.6
20260502042441 16 259 0.0 0.0 0.00 0.00 0.00 93 1014.6
20260502041939 16 199 0.0 0.0 0.00 0.00 0.00 93 1014.9
20260502041437 16 191 0.0 0.0 0.00 0.00 0.00 93 1014.9
20260502040933 16 181 0.0 0.0 0.00 0.00 0.00 93 1014.2
20260502040430 16 160 0.0 0.0 0.00 0.00 0.00 93 1014.2
20260502035926 16 211 8.0 9.7 0.00 0.00 0.00 93 1014.2
20260502035423 16 242 1.6 8.0 0.00 0.00 0.00 92 1014.2
20260502034921 16 249 0.0 0.0 0.00 0.00 0.00 93 1014.2
20260502034419 16 254 0.0 0.0 0.00 0.00 0.00 93 1013.9
20260502033917 16 223 0.0 0.0 0.00 0.00 0.00 92 1013.9
20260502033414 16 224 0.0 0.0 0.00 0.00 0.00 92 1013.9
20260502032911 16 174 0.0 0.0 0.00 0.00 0.00 93 1013.9
20260502032407 16 168 6.4 8.0 0.00 0.00 0.00 93 1013.9
20260502031904 16 221 0.0 0.0 0.00 0.00 0.00 92 1013.5
20260502031403 16 246 0.0 0.0 0.00 0.00 0.00 92 1013.5
20260502030901 16 161 0.0 0.0 0.00 0.00 0.00 92 1013.5
20260502030359 16 234 0.0 3.2 0.00 0.00 0.00 92 1013.5
20260502025856 16 262 0.0 0.0 0.00 0.00 0.00 92 1013.2
20260502025353 16 198 1.6 8.0 0.00 0.00 0.00 92 1013.5
20260502024851 16 178 4.8 4.8 0.00 0.00 0.00 92 1013.2
20260502024349 16 218 0.0 0.0 0.00 0.00 0.00 92 1013.5
20260502023847 16 189 0.0 0.0 0.00 0.00 0.00 92 1013.2
20260502023344 16 186 6.4 9.7 0.00 0.00 0.00 92 1013.2
20260502022842 16 213 0.0 0.0 0.00 0.00 0.00 92 1013.2
20260502022338 16 226 0.0 1.6 0.00 0.00 0.00 91 1013.2
20260502021835 16 204 0.0 0.0 0.00 0.00 0.00 91 1013.2
20260502021332 16 237 9.7 16.1 0.00 0.00 0.00 91 1013.2
20260502020829 17 256 14.5 16.1 0.00 0.00 0.00 91 1012.9
20260502020327 16 247 9.7 14.5 0.00 0.00 0.00 91 1012.9
20260502015824 17 180 4.8 9.7 0.00 0.00 0.00 91 1013.2
20260502015321 17 191 8.0 11.3 0.00 0.00 0.00 91 1012.9
20260502014818 17 224 0.0 0.0 0.00 0.00 0.00 90 1012.9
20260502014315 17 194 11.3 12.9 0.00 0.00 0.00 89 1012.9
20260502013811 17 205 0.0 0.0 0.00 0.00 0.00 89 1012.9